Wind_Speed
14 14 14 13 14 14 15 16 15 14 13 13 12 12 11 10 9 8 7 7 7 6 6 6 6 5 3 2 2 2 3 4 5 4 4 3 3 3 3 3 2 2 2 2 2 1 1 1 0
15 15 14 14 15 16 17 16 15 14 14 13 13 12 11 10 10 9 8 7 7 6 6 6 6 5 3 2 2 3 3 3 3 3 3 2 2 2 2 2 2 1 1 1 1 1 1 1 1
14 14 14 15 17 17 17 16 15 15 15 15 13 12 12 10 10 9 9 8 8 7 6 6 7 5 4 2 2 2 3 3 2 3 3 2 1 1 1 1 2 1 1 1 1 1 1 1 2
14 14 14 16 16 17 18 17 16 15 15 15 14 13 12 11 11 10 9 9 8 7 7 7 7 6 5 4 3 3 3 3 3 3 3 2 1 1 1 1 2 1 1 0 1 0 0 1 2
14 14 15 16 16 17 17 15 15 15 15 15 15 14 13 12 12 11 11 10 9 8 8 7 7 6 5 5 4 4 3 4 3 3 3 2 2 1 1 0 1 1 1 0 0 0 1 1 2
14 14 15 16 16 17 16 15 16 15 15 15 15 14 14 13 12 12 12 11 10 9 8 8 7 7 7 6 5 4 4 3 3 3 3 2 2 2 2 2 1 1 1 1 2 1 1 1 1
12 12 14 15 15 16 16 16 15 15 15 15 15 14 14 13 13 13 12 11 11 10 9 8 8 8 7 6 5 4 4 4 3 3 3 2 2 2 2 2 1 1 1 1 1 2 2 1 1
12 12 13 14 14 16 16 16 15 15 15 15 15 15 15 14 14 13 12 11 11 10 9 8 8 7 7 6 6 6 5 4 3 3 3 3 3 2 2 2 1 0 1 1 2 2 1 2 2
10 11 11 13 14 15 15 15 15 15 15 15 15 15 15 14 14 13 13 12 11 10 9 9 8 7 7 7 7 7 6 5 4 3 3 3 3 2 2 2 1 0 1 2 2 2 3 2 2
10 9 11 12 13 14 14 15 15 14 15 15 15 15 15 14 14 14 13 12 12 10 10 9 8 8 7 8 7 7 6 5 4 4 3 3 2 2 1 1 1 1 1 1 2 2 2 3 3
9 10 10 10 12 13 13 15 14 14 14 14 14 14 14 14 14 13 13 13 12 11 11 10 9 8 8 7 7 7 6 5 4 4 3 2 2 2 2 1 1 1 1 1 1 2 1 1 1
8 10 9 10 12 13 14 14 14 14 15 14 14 14 13 13 14 14 13 12 12 12 11 11 10 9 8 8 8 8 7 7 6 6 5 3 3 3 3 3 2 2 2 2 2 2 2 2 1
8 8 8 9 10 12 13 13 14 14 14 14 13 13 13 12 12 13 13 13 13 13 12 11 11 10 9 9 9 9 8 8 7 6 6 5 5 4 4 3 3 3 3 3 3 3 2 2 1
8 7 8 9 11 11 12 13 13 13 13 13 13 13 13 12 13 13 13 13 13 12 12 11 12 11 10 10 9 9 9 8 7 6 6 6 5 5 5 5 4 4 4 4 3 3 2 1 1
7 6 7 9 10 11 11 13 13 12 13 13 13 12 12 13 13 13 13 13 12 11 11 11 11 11 10 10 9 9 8 8 7 6 6 5 5 6 5 5 4 4 4 4 3 2 2 2 2
6 6 6 7 8 10 12 13 13 12 13 12 12 12 12 12 12 12 12 12 11 11 11 10 10 10 9 9 8 8 7 7 7 7 7 6 6 6 6 6 5 5 4 4 3 3 3 3 3
4 5 5 5 7 9 10 11 11 12 12 12 12 12 12 12 11 11 11 10 10 10 10 9 9 9 8 8 8 8 7 7 7 7 7 6 6 6 6 6 6 6 5 5 4 4 3 3 3
3 3 3 2 5 7 8 9 10 10 11 11 11 11 12 12 11 11 10 9 10 9 9 8 8 7 7 7 7 7 7 8 8 8 7 7 6 6 6 6 6 5 5 5 5 4 4 3 4
2 1 1 1 4 6 7 8 8 9 9 9 9 10 10 11 11 10 9 9 9 9 8 7 7 6 6 6 6 6 7 7 7 7 7 7 6 6 6 6 6 5 5 5 5 4 4 4 5
5 4 4 3 4 5 6 6 7 7 7 7 8 8 9 10 10 10 10 10 8 8 8 7 6 5 5 5 6 6 7 7 7 7 7 7 7 7 7 7 6 6 6 5 5 5 4 5 6
8 7 6 5 6 6 6 6 6 7 7 6 7 8 9 8 8 9 9 9 8 8 7 7 6 6 6 6 6 6 7 7 8 8 9 8 8 8 7 8 8 8 7 6 6 6 5 6 6
9 8 8 8 8 7 7 6 6 7 7 6 7 7 9 9 7 8 9 8 7 7 7 6 7 6 6 6 6 6 6 7 8 9 9 9 8 8 9 9 9 9 8 8 7 7 7 7 7
9 9 10 10 9 9 7 7 6 7 7 6 6 7 8 9 8 7 8 9 7 6 6 6 6 6 5 5 6 6 7 8 8 9 9 10 10 9 9 10 9 10 10 9 8 8 8 8 8
9 11 11 11 10 8 6 8 8 8 9 8 7 7 8 9 8 7 8 8 6 6 6 7 7 7 6 6 6 7 7 8 8 9 10 10 11 11 11 10 10 10 10 10 9 9 9 9 9
11 11 12 12 11 8 7 9 9 9 9 9 8 8 8 9 7 6 7 6 6 6 7 7 8 8 8 7 8 8 9 9 10 10 11 11 12 12 12 11 11 11 11 10 10 10 9 10 10
10 11 12 12 11 10 9 11 9 9 10 10 9 9 8 9 8 7 7 8 7 7 8 8 8 8 9 9 9 9 10 10 11 11 11 12 12 12 12 12 12 12 12 11 11 10 10 10 10
12 13 13 13 12 12 13 12 12 11 10 10 9 9 9 9 9 10 9 9 9 8 9 9 9 8 9 10 10 11 11 11 11 11 12 12 13 13 13 13 13 13 12 12 12 12 12 11 11
15 14 14 14 14 15 14 14 12 12 11 11 11 9 10 11 10 11 11 12 11 9 9 9 9 9 9 10 11 12 12 11 11 12 12 13 13 13 13 14 14 13 13 12 12 13 13 13 13
15 15 15 16 16 16 16 15 13 13 12 11 11 11 12 12 12 12 13 14 11 10 10 8 9 10 10 11 12 13 13 13 13 13 13 13 14 14 14 14 14 14 13 14 14 15 15 14 14
17 16 16 17 17 17 17 16 13 13 12 12 12 12 13 13 13 13 13 12 11 11 12 11 11 11 12 13 13 14 14 14 14 15 14 14 14 15 15 15 15 15 15 15 15 16 16 15 15
Wind_Direction
78 73 66 58 58 63 58 53 53 52 46 45 43 39 37 35 39 46 42 39 37 40 36 28 28 35 49 81 114 116 130 124 131 140 146 154 162 168 171 178 198 230 242 235 245 263 307 223 231
77 70 62 57 56 56 54 52 50 50 49 46 43 41 40 37 42 44 44 39 42 47 42 33 35 40 56 96 118 129 132 127 128 136 143 154 155 162 175 195 227 257 241 209 239 236 273 269 259
75 68 58 55 54 52 51 51 45 44 45 46 42 40 37 39 44 42 44 43 46 46 44 39 41 42 47 64 94 127 135 132 131 137 144 153 148 172 178 220 244 254 197 185 176 178 268 270 252
76 67 60 55 53 53 51 48 43 43 44 46 43 39 36 42 44 45 44 46 50 50 46 44 45 48 57 70 86 106 128 138 132 133 145 151 149 165 175 234 264 256 162 211 191 169 295 271 266
75 66 60 54 50 50 46 45 46 45 45 44 42 36 39 45 47 51 49 49 50 50 51 51 51 52 58 73 83 94 115 129 129 129 148 158 161 170 178 183 250 173 151 190 240 235 245 265 263
71 63 57 51 49 51 49 47 49 43 43 43 40 37 42 47 49 52 50 49 50 50 53 57 58 57 63 70 72 83 101 117 129 128 141 152 161 158 169 163 138 138 241 293 309 291 232 263 261
74 64 58 53 48 48 49 48 46 44 42 42 39 38 44 46 48 50 48 48 49 50 52 55 58 59 60 63 59 71 96 99 115 125 142 143 152 164 171 174 150 193 224 252 285 284 257 250 267
69 62 58 55 48 47 48 45 42 41 41 41 40 41 46 48 49 47 46 47 50 51 51 53 54 57 60 60 61 70 79 85 100 116 129 124 126 147 153 142 152 173 231 260 264 272 283 262 265
69 62 54 50 49 47 48 47 44 40 39 37 36 39 43 45 46 46 46 49 52 52 50 51 55 59 64 66 68 75 78 81 94 108 114 108 108 100 102 129 138 156 281 292 291 283 267 260 283
69 62 56 49 49 45 42 46 44 40 38 36 36 38 40 42 44 47 47 48 52 54 51 52 60 62 63 67 70 74 77 76 81 85 94 98 94 82 76 82 69 48 350 308 299 286 272 269 272
66 64 57 51 44 40 35 39 39 36 34 35 38 39 41 42 43 46 47 47 48 50 49 52 62 60 60 64 67 73 76 65 64 72 73 78 54 37 37 45 41 30 357 337 311 306 310 338 301
73 66 52 39 36 33 28 31 32 32 32 36 37 38 39 40 41 45 45 46 48 50 49 51 59 59 63 65 69 69 67 59 57 63 63 60 44 40 47 56 47 27 28 41 27 23 25 27 34
74 70 60 43 36 33 29 32 27 29 32 33 30 34 36 37 38 43 45 48 50 51 53 55 59 62 70 72 69 69 62 55 57 63 60 56 52 56 58 45 34 41 42 34 22 22 23 3 358
83 77 64 48 39 36 26 26 26 28 32 30 27 31 31 34 38 42 43 46 48 49 52 57 60 64 75 75 69 65 62 58 56 57 57 55 56 55 45 39 36 39 39 31 25 22 12 347 337
93 84 68 50 39 33 22 17 23 28 29 28 28 32 32 35 39 39 39 41 45 47 50 53 58 65 71 71 69 65 57 53 53 53 52 50 49 49 47 44 38 32 29 20 12 7 354 345 340
92 81 64 48 40 33 20 12 19 24 27 25 26 32 34 34 35 35 35 38 39 43 46 48 57 63 65 65 63 61 56 53 52 50 45 41 42 40 39 37 35 33 27 17 6 355 351 353 352
105 85 73 51 35 23 11 6 8 20 25 25 24 28 30 29 30 28 28 32 34 37 40 47 54 58 58 57 55 52 46 44 44 39 33 31 30 29 34 27 28 26 20 11 3 358 358 351 344
119 106 82 41 3 359 354 351 1 12 17 19 20 24 28 27 23 20 24 29 28 31 35 43 47 48 48 46 41 37 37 36 33 29 24 20 13 22 28 26 23 17 8 1 359 357 347 341 331
211 224 187 254 320 330 335 338 342 355 2 11 16 21 24 24 22 19 24 23 22 25 27 32 38 39 37 35 30 26 25 25 23 20 22 18 17 17 13 13 12 4 355 350 349 344 337 329 324
234 236 228 246 279 301 314 327 328 333 343 356 8 16 13 15 20 18 13 15 21 26 24 22 24 25 20 16 15 14 15 13 11 12 11 13 10 2 3 9 2 352 344 335 328 325 320 316 317
233 236 238 244 262 266 289 309 320 321 327 338 351 355 354 2 11 10 7 11 17 21 23 19 17 15 11 5 3 6 10 7 4 4 5 5 2 359 358 357 354 351 341 332 321 314 311 311 313
226 229 240 249 260 255 265 283 309 317 319 321 326 335 343 344 357 6 2 -0 5 10 15 15 12 10 6 2 358 358 0 357 356 358 1 359 356 352 348 345 342 340 336 329 321 317 310 303 305
231 236 242 250 253 246 252 270 289 291 298 306 314 322 329 337 350 357 355 354 356 359 1 1 2 3 3 0 355 355 353 348 346 349 350 349 346 341 338 336 335 333 330 321 318 314 310 304 302
240 246 245 245 247 251 259 282 286 281 278 284 297 305 315 324 338 348 349 353 352 344 347 348 349 351 349 348 347 345 344 343 340 337 338 339 339 335 330 329 329 326 326 323 320 317 311 306 306
241 246 243 237 238 242 257 272 283 279 276 281 291 295 305 313 321 342 344 344 344 340 334 341 342 342 339 335 335 336 334 335 334 332 331 331 331 332 330 330 327 322 317 317 318 317 310 306 303
246 247 252 250 251 246 259 268 273 275 278 282 290 292 296 302 305 325 331 333 332 338 333 327 331 335 334 330 326 326 325 324 325 326 327 327 326 326 327 328 326 322 315 311 310 309 309 305 300
238 245 254 258 259 258 260 261 264 268 273 280 285 288 286 294 300 307 314 319 321 323 324 324 324 324 325 326 324 320 317 319 320 320 321 322 324 325 325 326 325 323 318 313 309 306 307 304 300
235 245 249 254 259 261 260 259 263 265 271 277 279 283 287 292 293 298 305 311 312 313 316 316 313 313 313 315 320 320 319 317 316 317 319 321 323 325 326 324 321 317 316 313 311 308 306 306 305
235 243 250 255 260 263 265 260 259 263 267 272 273 279 289 294 298 302 303 310 308 307 310 309 308 310 310 310 313 313 313 313 313 313 314 315 316 317 317 317 317 316 313 310 309 308 309 306 306
240 243 248 251 258 261 265 263 260 258 265 269 276 283 285 290 290 294 300 301 303 303 303 305 303 305 308 309 310 310 309 307 305 306 308 308 309 311 313 313 313 312 311 309 309 310 309 305 305
Height
5910 5908 5908 5909 5908 5907 5905 5904 5903 5903 5902 5901 5900 5899 5898 5897 5897 5897 5894 5892 5892 5891 5891 5890 5889 5888 5887 5886 5886 5886 5885 5885 5886 5888 5889 5890 5891 5892 5893 5893 5894 5894 5894 5894 5894 5894 5894 5894 5894
5911 5910 5911 5910 5908 5907 5907 5905 5905 5904 5903 5902 5901 5900 5899 5897 5896 5895 5894 5893 5892 5892 5891 5891 5890 5889 5888 5888 5888 5888 5888 5888 5889 5890 5891 5891 5892 5893 5893 5894 5894 5894 5894 5894 5894 5894 5894 5894 5894
5913 5913 5913 5911 5909 5909 5908 5907 5906 5905 5904 5903 5902 5901 5899 5898 5896 5895 5894 5894 5893 5893 5892 5891 5891 5890 5890 5889 5889 5889 5889 5890 5890 5891 5891 5892 5893 5893 5893 5894 5894 5894 5894 5894 5894 5894 5894 5894 5894
5916 5915 5914 5913 5911 5910 5909 5908 5907 5906 5905 5904 5903 5902 5900 5898 5897 5896 5895 5894 5894 5893 5893 5892 5892 5891 5891 5890 5890 5890 5890 5891 5891 5892 5892 5893 5893 5893 5893 5894 5894 5894 5894 5895 5894 5894 5894 5894 5893
5917 5917 5915 5914 5913 5911 5911 5910 5909 5908 5907 5905 5904 5903 5901 5899 5898 5897 5896 5895 5894 5894 5894 5893 5893 5892 5892 5891 5891 5891 5891 5892 5892 5893 5893 5893 5893 5894 5894 5894 5894 5894 5894 5894 5894 5894 5894 5893 5893
5919 5918 5917 5915 5915 5914 5913 5912 5912 5910 5909 5907 5906 5904 5902 5901 5899 5898 5897 5896 5895 5895 5894 5894 5894 5893 5892 5892 5892 5892 5892 5892 5893 5893 5893 5894 5894 5894 5894 5894 5894 5894 5894 5894 5894 5894 5893 5893 5892
5921 5919 5918 5917 5916 5916 5915 5914 5913 5912 5910 5909 5907 5905 5904 5902 5900 5899 5898 5897 5896 5896 5895 5895 5894 5894 5894 5893 5893 5893 5893 5893 5894 5894 5894 5894 5894 5894 5894 5894 5894 5894 5894 5894 5894 5893 5893 5893 5892
5921 5921 5919 5919 5918 5918 5917 5916 5915 5913 5912 5911 5909 5907 5906 5904 5902 5901 5900 5899 5898 5897 5896 5896 5895 5895 5894 5894 5894 5893 5894 5894 5894 5894 5894 5894 5894 5894 5894 5894 5894 5894 5894 5894 5893 5893 5893 5892 5892
5923 5923 5921 5920 5920 5920 5919 5918 5917 5915 5914 5912 5910 5909 5908 5906 5904 5902 5901 5900 5899 5898 5897 5896 5896 5895 5895 5895 5894 5894 5894 5894 5894 5895 5895 5895 5895 5895 5894 5894 5894 5894 5893 5893 5893 5893 5892 5892 5891
5924 5923 5923 5922 5922 5921 5921 5920 5918 5916 5915 5914 5912 5910 5909 5907 5905 5904 5902 5901 5901 5899 5898 5897 5896 5896 5896 5895 5895 5895 5895 5895 5895 5895 5895 5895 5895 5895 5895 5894 5894 5894 5894 5893 5893 5892 5892 5891 5890
5924 5924 5924 5924 5923 5923 5922 5921 5919 5918 5917 5915 5913 5912 5910 5909 5907 5906 5904 5903 5902 5900 5899 5898 5897 5897 5896 5896 5896 5896 5896 5896 5896 5896 5896 5895 5895 5895 5895 5894 5894 5894 5893 5893 5892 5892 5891 5890 5890
5926 5925 5925 5924 5925 5924 5924 5922 5921 5919 5919 5917 5915 5913 5912 5910 5909 5907 5906 5904 5903 5902 5901 5899 5899 5898 5897 5897 5897 5897 5897 5897 5897 5896 5896 5896 5896 5895 5895 5894 5894 5893 5893 5892 5892 5891 5890 5890 5889
5927 5926 5926 5926 5925 5925 5925 5924 5922 5921 5920 5918 5917 5915 5914 5912 5911 5909 5907 5906 5905 5904 5902 5901 5900 5898 5898 5898 5898 5899 5898 5898 5897 5897 5897 5896 5896 5896 5895 5894 5894 5893 5892 5892 5891 5890 5890 5889 5889
5927 5927 5927 5927 5926 5925 5925 5925 5924 5922 5921 5919 5918 5917 5915 5914 5912 5910 5909 5908 5907 5905 5904 5903 5901 5900 5899 5900 5900 5900 5899 5899 5899 5898 5897 5897 5896 5896 5895 5894 5893 5893 5892 5891 5891 5890 5889 5889 5888
5927 5928 5927 5927 5927 5926 5926 5926 5925 5923 5922 5921 5919 5918 5916 5915 5913 5912 5911 5910 5908 5907 5906 5904 5903 5902 5902 5902 5901 5901 5901 5900 5899 5899 5898 5897 5896 5896 5895 5894 5893 5893 5892 5891 5890 5890 5889 5888 5888
5928 5929 5928 5928 5927 5927 5928 5926 5925 5924 5923 5922 5920 5919 5917 5916 5914 5914 5912 5911 5910 5908 5907 5906 5905 5904 5904 5903 5903 5902 5902 5901 5900 5899 5898 5897 5896 5896 5895 5894 5893 5892 5892 5891 5890 5889 5888 5887 5887
5928 5929 5929 5929 5928 5927 5927 5927 5926 5924 5924 5923 5921 5920 5918 5917 5916 5915 5913 5912 5911 5910 5908 5907 5906 5906 5905 5904 5904 5903 5902 5901 5900 5899 5899 5898 5897 5896 5895 5894 5893 5892 5891 5890 5889 5888 5887 5887 5886
5929 5929 5928 5929 5928 5927 5927 5927 5926 5925 5924 5923 5922 5921 5920 5918 5917 5915 5914 5913 5912 5911 5910 5908 5908 5907 5906 5905 5904 5903 5903 5902 5900 5900 5899 5897 5896 5895 5894 5893 5892 5891 5890 5889 5888 5887 5887 5886 5885
5927 5928 5928 5928 5928 5927 5927 5927 5925 5924 5924 5923 5922 5921 5920 5919 5918 5916 5915 5914 5913 5912 5910 5910 5908 5908 5907 5906 5905 5904 5903 5902 5901 5900 5899 5898 5896 5895 5894 5893 5892 5891 5889 5888 5887 5886 5886 5885 5884
5926 5926 5927 5928 5927 5927 5926 5926 5925 5924 5923 5923 5922 5921 5920 5919 5918 5917 5915 5914 5913 5912 5911 5910 5909 5908 5907 5906 5905 5904 5903 5902 5901 5900 5898 5897 5896 5895 5894 5892 5891 5890 5889 5887 5886 5885 5884 5883 5882
5925 5926 5926 5926 5926 5925 5925 5925 5924 5924 5923 5922 5922 5921 5920 5919 5918 5917 5916 5915 5913 5912 5911 5910 5909 5908 5907 5906 5905 5904 5903 5902 5901 5899 5898 5897 5895 5894 5893 5891 5890 5889 5887 5886 5885 5884 5883 5882 5880
5924 5925 5924 5924 5924 5924 5924 5923 5923 5922 5922 5922 5921 5921 5920 5919 5918 5917 5916 5915 5913 5912 5911 5910 5909 5908 5907 5906 5905 5904 5903 5902 5901 5899 5898 5896 5895 5893 5892 5890 5889 5887 5886 5884 5883 5882 5881 5880 5878
5922 5922 5922 5922 5922 5923 5923 5922 5922 5921 5920 5920 5920 5920 5919 5918 5917 5916 5915 5914 5913 5912 5911 5910 5908 5907 5906 5905 5904 5903 5902 5901 5900 5898 5897 5895 5893 5892 5890 5889 5887 5885 5884 5882 5881 5879 5878 5877 5876
5920 5920 5920 5920 5920 5921 5921 5920 5920 5919 5919 5918 5918 5918 5918 5917 5916 5915 5914 5912 5911 5911 5910 5909 5908 5906 5906 5905 5904 5903 5901 5900 5899 5897 5895 5894 5892 5890 5888 5887 5885 5883 5882 5880 5879 5877 5875 5874 5873
5917 5918 5917 5917 5917 5918 5918 5917 5917 5916 5916 5916 5916 5916 5915 5914 5913 5913 5912 5911 5910 5909 5908 5907 5906 5905 5904 5903 5902 5901 5900 5898 5897 5895 5894 5892 5890 5888 5886 5885 5883 5881 5879 5878 5876 5874 5873 5871 5870
5914 5915 5915 5915 5915 5915 5915 5914 5915 5914 5913 5913 5913 5913 5912 5912 5911 5911 5911 5909 5908 5907 5906 5906 5905 5904 5903 5902 5901 5899 5898 5897 5895 5893 5892 5890 5888 5886 5884 5882 5880 5878 5876 5875 5873 5872 5870 5868 5866
5911 5911 5912 5912 5912 5912 5911 5911 5911 5911 5911 5910 5910 5910 5910 5910 5910 5909 5908 5907 5907 5906 5905 5904 5903 5902 5901 5900 5899 5897 5896 5894 5892 5891 5889 5888 5886 5884 5882 5879 5877 5876 5874 5872 5871 5869 5867 5865 5863
5907 5908 5908 5909 5908 5908 5908 5908 5908 5907 5908 5908 5907 5907 5908 5908 5908 5906 5905 5904 5904 5904 5903 5902 5901 5900 5899 5898 5896 5895 5893 5892 5890 5889 5887 5885 5883 5881 5879 5877 5875 5873 5871 5869 5867 5866 5864 5862 5860
5904 5905 5905 5905 5905 5905 5904 5907 5905 5905 5905 5905 5905 5904 5905 5904 5904 5903 5902 5901 5901 5900 5900 5898 5898 5898 5896 5895 5894 5892 5891 5889 5888 5886 5884 5882 5880 5878 5876 5874 5872 5870 5868 5866 5864 5862 5860 5858 5856
5899 5900 5901 5901 5901 5901 5901 5904 5901 5902 5902 5902 5902 5901 5901 5902 5901 5901 5900 5899 5898 5898 5897 5896 5895 5894 5893 5892 5891 5889 5888 5886 5884 5883 5881 5879 5877 5875 5873 5871 5868 5866 5864 5862 5860 5858 5856 5854 5852